DW6345 Murcia ES current weather conditions

sailwx.info

Wind from 281 at 4 knots gusting 5

Air temperature 30.0° C
Dewpoint 11.9° C

Last reported at 2017-Sep-25 11:10 UTC.
Time now 2017-Sep-25 11:55 UTC

Location: N 37°60' W 001°06'.
View on Google Maps.

See reports from other nearby stations

  
Tides and Currents Weather Stations Pressure Air Temp Water Temp Dewpoint Dewpoint Depression Visibility Wind Speed Wind Dir Waves Ship Positions
date/time (UTC)wind fromknots sea level pressurealtimeterstation pressurevisibilityair tempwater tempwave heightnotes
2017-Sep-25 11:10 281 4 gusting 5 30.0
2017-Sep-25 11:05 136 4 gusting 6 30.0
2017-Sep-25 11:00 183 4 gusting 6 30.0
2017-Sep-25 10:55 202 2 gusting 5 29.4
2017-Sep-25 10:45 259 4 gusting 5 28.9
2017-Sep-25 10:40 191 4 gusting 6 28.9
2017-Sep-25 10:35 193 4 gusting 6 28.3
2017-Sep-25 10:25 198 4 gusting 6 28.3
2017-Sep-25 10:20 180 4 gusting 6 27.8
2017-Sep-25 10:15 201 4 gusting 8 27.8
2017-Sep-25 10:10 205 4 gusting 6 27.8
2017-Sep-25 10:05 157 5 gusting 6 27.2
2017-Sep-25 10:00 196 5 gusting 6 26.7
2017-Sep-25 09:55 204 5 gusting 8 26.7
2017-Sep-25 09:45 173 5 gusting 6 26.1
2017-Sep-25 09:40 188 5 gusting 7 25.6
2017-Sep-25 09:35 181 6 gusting 6 25.6
2017-Sep-25 09:25 186 5 gusting 8 25.0
2017-Sep-25 09:15 201 5 gusting 8 24.4
2017-Sep-25 09:10 191 5 gusting 10 24.4
2017-Sep-25 09:05 210 4 gusting 6 24.4
2017-Sep-25 08:55 194 4 gusting 6 23.9
2017-Sep-25 08:50 231 4 gusting 7 23.3
2017-Sep-25 08:45 211 4 gusting 6 23.3
2017-Sep-25 08:40 197 4 gusting 6 22.8
2017-Sep-25 08:35 223 4 gusting 7 22.8
2017-Sep-25 08:25 348 1 gusting 2 24.4
2017-Sep-25 05:54 348 1 gusting 2 24.4
2017-Sep-25 05:49 348 1 gusting 2 24.4
2017-Sep-25 05:44 348 1 gusting 2 24.4
2017-Sep-25 05:39 348 1 gusting 2 24.4
2017-Sep-25 05:34 348 1 gusting 2 24.4
2017-Sep-25 05:29 348 1 gusting 2 24.4
2017-Sep-25 05:24 348 1 gusting 2 24.4
2017-Sep-25 05:19 348 1 gusting 2 24.4
2017-Sep-25 05:14 348 1 gusting 2 24.4
2017-Sep-25 05:09 348 1 gusting 2 24.4
2017-Sep-25 05:04 348 1 gusting 2 24.4
2017-Sep-25 04:59 348 1 gusting 2 24.4
2017-Sep-25 04:54 348 1 gusting 2 24.4
2017-Sep-25 04:49 348 1 gusting 2 24.4
2017-Sep-25 04:44 348 1 gusting 2 24.4
2017-Sep-25 04:39 348 1 gusting 2 24.4
2017-Sep-25 04:34 348 1 gusting 2 24.4
2017-Sep-25 04:29 348 1 gusting 2 24.4
2017-Sep-25 04:24 348 1 gusting 2 24.4
2017-Sep-25 04:19 348 1 gusting 2 24.4
2017-Sep-25 04:14 348 1 gusting 2 24.4
2017-Sep-25 04:09 348 1 gusting 2 24.4
2017-Sep-25 04:04 348 1 gusting 2 24.4
2017-Sep-25 03:59 348 1 gusting 2 24.4
2017-Sep-25 03:54 348 1 gusting 2 24.4
2017-Sep-25 03:49 348 1 gusting 2 24.4
2017-Sep-25 03:44 348 1 gusting 2 24.4
2017-Sep-25 03:39 348 1 gusting 2 24.4
2017-Sep-25 03:34 348 1 gusting 2 24.4
2017-Sep-25 03:29 348 1 gusting 2 24.4
2017-Sep-25 03:24 348 1 gusting 2 24.4
2017-Sep-25 03:19 348 1 gusting 2 24.4
2017-Sep-25 03:14 348 1 gusting 2 24.4
2017-Sep-25 03:09 348 1 gusting 2 24.4
2017-Sep-25 03:04 348 1 gusting 2 24.4
2017-Sep-25 02:59 348 1 gusting 2 24.4
2017-Sep-25 02:54 348 1 gusting 2 24.4
2017-Sep-25 02:49 348 1 gusting 2 24.4
2017-Sep-25 02:44 348 1 gusting 2 24.4
2017-Sep-25 02:39 348 1 gusting 2 24.4
2017-Sep-25 02:34 348 1 gusting 2 24.4
2017-Sep-25 02:29 348 1 gusting 2 24.4
2017-Sep-25 02:24 348 1 gusting 2 24.4
2017-Sep-25 02:19 348 1 gusting 2 24.4
2017-Sep-25 02:14 348 1 gusting 2 24.4
2017-Sep-25 02:09 348 1 gusting 2 24.4
2017-Sep-25 02:04 348 1 gusting 2 24.4
2017-Sep-25 01:59 348 1 gusting 2 24.4
2017-Sep-25 01:54 348 1 gusting 2 24.4
2017-Sep-25 01:49 348 1 gusting 2 24.4
2017-Sep-25 01:44 348 1 gusting 2 24.4
2017-Sep-25 01:39 348 1 gusting 2 24.4
2017-Sep-25 01:34 348 1 gusting 2 24.4
2017-Sep-25 01:29 348 1 gusting 2 24.4
2017-Sep-25 01:24 348 1 gusting 2 24.4
2017-Sep-25 01:19 348 1 gusting 2 24.4
2017-Sep-25 01:14 348 1 gusting 2 24.4
2017-Sep-25 01:09 348 1 gusting 2 24.4
2017-Sep-25 01:04 348 1 gusting 2 24.4
2017-Sep-25 00:59 348 1 gusting 2 24.4
2017-Sep-25 00:54 348 1 gusting 2 24.4
2017-Sep-25 00:49 348 1 gusting 2 24.4
2017-Sep-25 00:44 348 1 gusting 2 24.4
2017-Sep-25 00:39 348 1 gusting 2 24.4
2017-Sep-25 00:34 348 1 gusting 2 24.4
2017-Sep-25 00:29 348 1 gusting 2 24.4
2017-Sep-25 00:24 348 1 gusting 2 24.4
2017-Sep-25 00:19 348 1 gusting 2 24.4
2017-Sep-25 00:14 348 1 gusting 2 24.4
2017-Sep-25 00:09 348 1 gusting 2 24.4
2017-Sep-25 00:04 348 1 gusting 2 24.4
2017-Sep-24 23:59 348 1 gusting 2 24.4
2017-Sep-24 23:54 348 1 gusting 2 24.4
2017-Sep-24 23:49 348 1 gusting 2 24.4
2017-Sep-24 23:44 348 1 gusting 2 24.4
2017-Sep-24 23:39 348 1 gusting 2 24.4
2017-Sep-24 23:34 348 1 gusting 2 24.4
2017-Sep-24 23:29 348 1 gusting 2 24.4
2017-Sep-24 23:24 348 1 gusting 2 24.4
2017-Sep-24 23:19 348 1 gusting 2 24.4
2017-Sep-24 23:14 348 1 gusting 2 24.4
2017-Sep-24 23:09 348 1 gusting 2 24.4
2017-Sep-24 23:04 348 1 gusting 2 24.4
2017-Sep-24 22:59 348 1 gusting 2 24.4
2017-Sep-24 22:54 348 1 gusting 2 24.4
2017-Sep-24 22:49 348 1 gusting 2 24.4
2017-Sep-24 22:44 348 1 gusting 2 24.4
2017-Sep-24 22:39 348 1 gusting 2 24.4
2017-Sep-24 22:34 348 1 gusting 2 24.4
2017-Sep-24 22:29 348 1 gusting 2 24.4
2017-Sep-24 22:24 348 1 gusting 2 24.4
2017-Sep-24 22:19 348 1 gusting 2 24.4
2017-Sep-24 22:14 348 1 gusting 2 24.4
2017-Sep-24 22:09 348 1 gusting 2 24.4
2017-Sep-24 22:04 348 1 gusting 2 24.4
2017-Sep-24 21:59 348 1 gusting 2 24.4
2017-Sep-24 21:54 348 1 gusting 2 24.4
2017-Sep-24 21:49 348 1 gusting 2 24.4
2017-Sep-24 21:44 348 1 gusting 2 24.4
2017-Sep-24 21:39 348 1 gusting 2 24.4
2017-Sep-24 21:34 348 1 gusting 2 24.4
2017-Sep-24 21:29 348 1 gusting 2 24.4
2017-Sep-24 21:24 348 1 gusting 2 24.4
2017-Sep-24 21:19 348 1 gusting 2 24.4
2017-Sep-24 21:14 348 1 gusting 2 24.4
2017-Sep-24 21:09 348 1 gusting 2 24.4
2017-Sep-24 21:04 348 1 gusting 2 24.4
2017-Sep-24 20:59 348 1 gusting 2 24.4
2017-Sep-24 20:54 348 1 gusting 2 24.4
2017-Sep-24 20:49 348 1 gusting 2 24.4
2017-Sep-24 20:44 348 1 gusting 2 24.4
2017-Sep-24 20:39 348 1 gusting 2 24.4
2017-Sep-24 20:34 348 1 gusting 2 24.4
2017-Sep-24 20:29 348 1 gusting 2 24.4
2017-Sep-24 20:24 348 1 gusting 4 24.4
2017-Sep-24 20:19 002 1 gusting 2 24.4
2017-Sep-24 20:14 002 1 gusting 2 24.4
2017-Sep-24 20:09 001 1 gusting 2 24.4
2017-Sep-24 20:04 041 1 gusting 2 24.4
2017-Sep-24 19:59 051 1 gusting 2 24.4
2017-Sep-24 19:54 322 1 gusting 2 24.4
2017-Sep-24 19:49 346 1 gusting 2 24.4
2017-Sep-24 19:44 003 1 gusting 2 25.0
2017-Sep-24 19:39 053 1 gusting 2 25.0
2017-Sep-24 19:34 053 1 gusting 2 25.0
2017-Sep-24 19:29 053 2 gusting 4 25.0
2017-Sep-24 19:24 074 2 gusting 4 25.6
2017-Sep-24 19:19 050 2 gusting 4 25.6
2017-Sep-24 19:14 052 1 gusting 4 25.6
2017-Sep-24 19:09 050 1 gusting 4 26.1
2017-Sep-24 19:04 328 1 gusting 4 26.1
2017-Sep-24 18:59 088 1 gusting 4 26.7
2017-Sep-24 18:54 109 1 gusting 4 26.7
2017-Sep-24 18:49 221 1 gusting 2 26.7
2017-Sep-24 18:44 219 1 gusting 5 26.7
2017-Sep-24 18:39 280 1 gusting 2 27.2
2017-Sep-24 18:34 261 1 gusting 5 27.2
2017-Sep-24 18:29 236 2 gusting 5 27.2
2017-Sep-24 18:24 168 2 gusting 4 27.2
2017-Sep-24 18:19 129 2 gusting 4 27.2
2017-Sep-24 18:14 129 4 gusting 6 27.2
2017-Sep-24 18:09 120 4 gusting 6 27.2
2017-Sep-24 18:04 123 5 gusting 5 27.2
2017-Sep-24 17:59 104 5 gusting 6 27.8
2017-Sep-24 17:54 119 5 gusting 6 27.8
2017-Sep-24 17:49 114 5 gusting 8 28.3
2017-Sep-24 17:44 117 5 gusting 8 28.3
2017-Sep-24 17:39 112 5 gusting 10 28.3
2017-Sep-24 17:34 132 4 gusting 6 28.3
2017-Sep-24 17:29 147 4 gusting 8 28.3
2017-Sep-24 17:24 130 5 gusting 6 28.3
2017-Sep-24 17:19 117 5 gusting 8 28.9
2017-Sep-24 17:14 133 6 gusting 8 28.9
2017-Sep-24 17:09 135 6 gusting 10 28.9
2017-Sep-24 17:04 126 6 gusting 12 28.9
2017-Sep-24 16:59 132 6 gusting 11 28.9
2017-Sep-24 16:54 128 6 gusting 11 29.4
2017-Sep-24 16:49 127 6 gusting 12 29.4
2017-Sep-24 16:44 130 7 gusting 12 29.4
2017-Sep-24 16:39 132 7 gusting 10 29.4
2017-Sep-24 16:34 125 7 gusting 13 29.4
2017-Sep-24 16:29 131 7 gusting 13 30.0
2017-Sep-24 16:24 123 6 gusting 13 30.0
2017-Sep-24 16:19 143 6 gusting 13 30.0
2017-Sep-24 16:14 140 6 gusting 12 30.6
2017-Sep-24 16:09 136 6 gusting 12 30.6
2017-Sep-24 16:04 126 6 gusting 13 30.6
2017-Sep-24 15:59 151 6 gusting 13 30.6
2017-Sep-24 15:54 122 7 gusting 10 30.0
2017-Sep-24 15:49 111 7 gusting 13 30.0
2017-Sep-24 15:44 126 6 gusting 13 30.0
2017-Sep-24 15:39 127 7 gusting 12 30.0
2017-Sep-24 15:34 117 7 gusting 13 30.6
2017-Sep-24 15:29 109 7 gusting 12 30.6
2017-Sep-24 15:24 129 6 gusting 13 30.6
2017-Sep-24 15:19 104 6 gusting 14 31.1
2017-Sep-24 15:14 130 7 gusting 12 30.6
2017-Sep-24 15:09 119 7 gusting 12 30.6
2017-Sep-24 15:04 111 8 gusting 14 30.6
2017-Sep-24 14:59 117 8 gusting 13 30.6
2017-Sep-24 14:54 132 8 gusting 13 31.1
2017-Sep-24 14:49 107 8 gusting 14 31.1
2017-Sep-24 14:44 116 6 gusting 15 31.1
2017-Sep-24 14:39 141 6 gusting 10 31.1
2017-Sep-24 14:34 150 6 gusting 13 31.7
2017-Sep-24 14:29 121 7 gusting 12 31.1
2017-Sep-24 14:24 102 7 gusting 13 31.1
2017-Sep-24 14:19 102 7 gusting 14 31.1
2017-Sep-24 14:14 116 6 gusting 12 31.1
2017-Sep-24 14:09 136 6 gusting 13 31.1
2017-Sep-24 14:04 101 5 gusting 11 31.1
2017-Sep-24 13:59 071 5 gusting 13 31.1
2017-Sep-24 13:54 085 4 gusting 12 31.1
2017-Sep-24 13:49 199 4 gusting 8 31.1
2017-Sep-24 13:44 093 2 gusting 8 31.1
2017-Sep-24 13:39 091 2 gusting 5 31.1
2017-Sep-24 13:34 160 2 gusting 5 30.6
2017-Sep-24 13:29 206 2 gusting 6 30.6
2017-Sep-24 13:24 138 2 gusting 5 30.6
2017-Sep-24 13:19 002 2 gusting 5 30.6
2017-Sep-24 13:14 003 2 gusting 6 30.6
2017-Sep-24 13:09 036 2 gusting 4 30.0
2017-Sep-24 13:04 210 2 gusting 6 30.0
2017-Sep-24 12:59 096 2 gusting 6 30.0
2017-Sep-24 12:54 143 2 gusting 5 30.0
2017-Sep-24 12:49 098 2 gusting 6 30.0
2017-Sep-24 12:44 054 2 gusting 6 30.0
2017-Sep-24 12:39 309 2 gusting 4 29.4
2017-Sep-24 12:34 030 2 gusting 5 29.4
2017-Sep-24 12:29 093 2 gusting 6 29.4
2017-Sep-24 12:24 268 1 gusting 5 29.4
2017-Sep-24 12:19 310 1 gusting 4 29.4
2017-Sep-24 12:14 129 2 gusting 4 28.9
2017-Sep-24 12:09 091 2 gusting 6 28.3
2017-Sep-24 12:04 238 2 gusting 6 28.3
2017-Sep-24 11:59 187 2 gusting 5 28.3
2017-Sep-24 11:54 122 1 gusting 6 28.3
2017-Sep-24 11:49 063 1 gusting 5 28.3
2017-Sep-24 11:44 071 1 gusting 5 28.3
2017-Sep-24 11:39 013 1 gusting 4 28.3
2017-Sep-24 11:34 327 1 gusting 4 28.3
2017-Sep-24 11:29 102 1 gusting 4 27.8
2017-Sep-24 11:24 287 1 gusting 4 27.2
2017-Sep-24 11:19 050 1 gusting 4 26.7
2017-Sep-24 11:14 297 1 gusting 4 26.7
2017-Sep-24 11:09 323 1 gusting 4 26.7
2017-Sep-24 11:04 282 1 gusting 5 26.7
2017-Sep-24 10:59 273 1 gusting 4 26.7
2017-Sep-24 10:54 091 1 gusting 4 26.1
2017-Sep-24 10:49 180 2 gusting 5 26.1
2017-Sep-24 10:44 194 2 gusting 5 25.6
2017-Sep-24 10:39 192 2 gusting 6 25.6
2017-Sep-24 10:34 258 4 gusting 6 25.6
2017-Sep-24 10:29 144 3 gusting 5 25.6
2017-Sep-24 10:24 200 1 gusting 6 25.0
2017-Sep-24 10:19 172 2 gusting 5 25.0
2017-Sep-24 10:14 250 2 gusting 4 24.4
2017-Sep-24 10:09 213 2 gusting 6 24.4
2017-Sep-24 10:04 197 2 gusting 6 24.4
2017-Sep-24 09:59 273 2 gusting 6 23.9
2017-Sep-24 09:54 175 1 gusting 5 23.9
2017-Sep-24 09:49 218 1 gusting 6 23.9
2017-Sep-24 09:44 268 1 gusting 5 23.3
2017-Sep-24 09:39 196 2 gusting 5 23.3
2017-Sep-24 09:34 212 2 gusting 4 23.3
2017-Sep-24 09:29 176 2 gusting 4 22.8
2017-Sep-24 09:24 217 2 gusting 6 22.8
2017-Sep-24 09:19 279 2 gusting 5 22.8
2017-Sep-24 09:14 234 2 gusting 5 22.2
2017-Sep-24 09:09 240 2 gusting 5 22.2
2017-Sep-24 09:04 269 1 gusting 5 22.2
2017-Sep-24 08:59 253 1 gusting 4 22.2
2017-Sep-24 08:54 227 1 gusting 4 22.2
2017-Sep-24 08:49 159 1 gusting 5 21.7
2017-Sep-24 08:44 271 1 gusting 4 21.7
2017-Sep-24 08:39 164 1 gusting 1 21.1
2017-Sep-24 08:34 166 2 gusting 4 21.1
2017-Sep-24 08:29 191 2 gusting 4 20.6
2017-Sep-24 08:24 153 1 gusting 5 20.6
2017-Sep-24 08:19 155 1 gusting 5 20.6
2017-Sep-24 08:14 238 1 gusting 4 20.6
2017-Sep-24 08:09 225 1 gusting 4 20.6
2017-Sep-24 08:04 209 2 gusting 4 20.0
2017-Sep-24 07:59 215 2 gusting 5 20.0
2017-Sep-24 07:54 240 2 gusting 5 19.4
2017-Sep-24 07:49 261 2 gusting 5 19.4
2017-Sep-24 07:44 205 4 gusting 4 19.4
2017-Sep-24 07:39 169 4 gusting 5 19.4
2017-Sep-24 07:34 191 4 gusting 6 19.4
2017-Sep-24 07:29 199 3 gusting 6 19.4
2017-Sep-24 07:24 168 2 gusting 6 18.9
2017-Sep-24 07:19 223 2 gusting 5 18.9
2017-Sep-24 07:14 224 2 gusting 5 18.9
2017-Sep-24 07:09 225 2 gusting 5 18.9
2017-Sep-24 07:04 188 2 gusting 5 18.9
2017-Sep-24 06:59 205 2 gusting 6 18.9
2017-Sep-24 06:54 233 2 gusting 5 18.9
2017-Sep-24 06:49 228 2 gusting 5 18.3
2017-Sep-24 06:44 214 4 gusting 4 18.3
2017-Sep-24 06:39 223 3 gusting 6 18.3
2017-Sep-24 06:34 213 2 gusting 6 18.3
2017-Sep-24 06:29 220 2 gusting 5 18.3
2017-Sep-24 06:24 193 4 gusting 4 18.3
2017-Sep-24 06:19 211 3 gusting 5 18.3
2017-Sep-24 06:14 201 1 gusting 6 18.3
2017-Sep-24 06:09 185 1 gusting 4 18.3
2017-Sep-24 06:04 152 1 gusting 4 18.3
2017-Sep-24 05:59 216 1 gusting 2 18.3
2017-Sep-24 05:54 216 1 gusting 2 18.3
2017-Sep-24 05:49 235 1 gusting 4 18.3
2017-Sep-24 05:44 251 2 gusting 4 18.3
2017-Sep-24 05:39 225 2 gusting 4 18.3
2017-Sep-24 05:34 241 1 gusting 6 18.3
2017-Sep-24 05:29 249 1 gusting 5 18.3
2017-Sep-24 05:24 222 1 gusting 4 18.3
2017-Sep-24 05:19 219 2 gusting 4 18.3
2017-Sep-24 05:14 226 2 gusting 4 18.3
2017-Sep-24 05:09 200 2 gusting 5 18.9
2017-Sep-24 05:04 214 1 gusting 5 18.9
2017-Sep-24 04:59 221 1 gusting 4 18.9
2017-Sep-24 04:54 218 1 gusting 4 18.9
2017-Sep-24 04:49 200 1 gusting 4 18.9
2017-Sep-24 04:44 203 1 gusting 1 18.9
2017-Sep-24 04:39 219 1 gusting 4 18.9
2017-Sep-24 04:34 245 1 gusting 2 18.9
2017-Sep-24 04:29 265 1 gusting 2 18.9
2017-Sep-24 04:24 261 1 gusting 1 18.9
2017-Sep-24 04:19 228 1 gusting 2 18.9
2017-Sep-24 04:14 219 1 gusting 1 18.9
2017-Sep-24 04:09 219 1 gusting 2 18.9
2017-Sep-24 04:04 204 2 gusting 4 18.9
2017-Sep-24 03:59 221 2 gusting 5 18.9
2017-Sep-24 03:54 226 1 gusting 4 18.9
2017-Sep-24 03:49 226 1 gusting 5 18.9
2017-Sep-24 03:44 219 1 gusting 4 18.9
2017-Sep-24 03:39 209 1 gusting 4 18.9
2017-Sep-24 03:34 227 1 gusting 5 19.4
2017-Sep-24 03:29 227 1 gusting 4 19.4
2017-Sep-24 03:24 211 1 gusting 2 19.4
2017-Sep-24 03:19 219 2 gusting 4 19.4
2017-Sep-24 03:14 204 2 gusting 4 19.4
2017-Sep-24 03:09 192 2 gusting 5 19.4
2017-Sep-24 03:04 211 4 gusting 4 19.4
2017-Sep-24 02:59 214 3 gusting 6 19.4
2017-Sep-24 02:54 217 1 gusting 6 19.4
2017-Sep-24 02:49 199 2 gusting 4 19.4
2017-Sep-24 02:44 234 2 gusting 4 19.4
2017-Sep-24 02:39 202 2 gusting 4 18.9
2017-Sep-24 02:34 195 4 gusting 6 18.9
2017-Sep-24 02:29 178 3 gusting 6 18.9
2017-Sep-24 02:24 163 2 gusting 5 18.9
2017-Sep-24 02:19 145 2 gusting 5 18.9
2017-Sep-24 02:14 142 1 gusting 4 19.4
2017-Sep-24 02:09 148 1 gusting 5 19.4
2017-Sep-24 02:04 126 1 gusting 5 19.4
2017-Sep-24 01:59 151 1 gusting 2 19.4
2017-Sep-24 01:54 153 19.4
2017-Sep-24 01:49 007 19.4
2017-Sep-24 01:44 007 0 gusting 1 19.4
2017-Sep-24 01:39 007 0 gusting 1 19.4
2017-Sep-24 01:34 007 1 gusting 1 19.4
2017-Sep-24 01:29 006 1 gusting 2 19.4
2017-Sep-24 01:24 006 0 gusting 1 19.4
2017-Sep-24 01:19 006 0 gusting 1 20.0
2017-Sep-24 01:14 006 20.0
2017-Sep-24 01:09 006 20.0
2017-Sep-24 01:04 006 20.0
2017-Sep-24 00:59 006 20.0
2017-Sep-24 00:54 006 0 gusting 1 20.0
2017-Sep-24 00:49 006 0 gusting 1 20.0
2017-Sep-24 00:44 006 20.0
2017-Sep-24 00:39 006 20.0
2017-Sep-24 00:34 006 0 gusting 0 20.0
2017-Sep-24 00:29 006 0 gusting 1 20.0
2017-Sep-24 00:24 006 0 gusting 1 20.0
2017-Sep-24 00:19 006 0 gusting 1 20.6
2017-Sep-24 00:14 006 20.6
2017-Sep-24 00:09 086 0 gusting 1 20.6
2017-Sep-24 00:04 133 0 20.6
2017-Sep-23 23:59 133 1 gusting 1 20.6
2017-Sep-23 23:54 133 1 gusting 1 20.6
2017-Sep-23 23:49 133 1 gusting 2 20.6
2017-Sep-23 23:44 133 1 gusting 4 20.6
2017-Sep-23 23:39 129 1 gusting 5 20.6
2017-Sep-23 23:34 141 1 gusting 4 21.1
2017-Sep-23 23:29 116 1 gusting 2 21.1
2017-Sep-23 23:24 104 0 gusting 2 21.1
2017-Sep-23 23:19 129 0 gusting 2 21.1
2017-Sep-23 23:14 132 0 gusting 2 21.1
2017-Sep-23 23:09 131 0 gusting 2 21.1
2017-Sep-23 23:04 142 21.1
2017-Sep-23 22:59 149 0 gusting 1 21.1
2017-Sep-23 22:54 149 1 gusting 1 21.1
2017-Sep-23 22:49 149 1 gusting 1 21.1
2017-Sep-23 22:44 149 1 gusting 2 21.1
2017-Sep-23 22:39 149 1 gusting 2 21.1
2017-Sep-23 22:34 149 0 gusting 4 21.1
2017-Sep-23 22:29 278 21.7
2017-Sep-23 22:24 278 21.7
2017-Sep-23 22:19 278 21.7
2017-Sep-23 22:14 278 21.7
2017-Sep-23 22:09 278 21.7
2017-Sep-23 22:04 278 21.7
2017-Sep-23 21:59 278 21.7
2017-Sep-23 21:54 278 0 gusting 1 21.7
2017-Sep-23 21:49 278 0 gusting 1 21.7
2017-Sep-23 21:44 278 1 gusting 2 21.7
2017-Sep-23 21:39 278 1 gusting 2 21.7
2017-Sep-23 21:34 260 1 gusting 2 21.7
2017-Sep-23 21:29 316 1 gusting 2 21.7
2017-Sep-23 21:24 026 1 gusting 1 21.7
2017-Sep-23 21:19 011 1 gusting 4 21.7
2017-Sep-23 21:14 022 1 gusting 4 21.7
2017-Sep-23 21:09 004 1 gusting 1 21.7
2017-Sep-23 21:04 002 0 gusting 1 21.7
2017-Sep-23 20:59 002 0 gusting 1 21.7
2017-Sep-23 20:54 002 0 gusting 1 21.7
2017-Sep-23 20:49 002 0 gusting 1 21.7
2017-Sep-23 20:44 001 1 gusting 1 21.7
2017-Sep-23 20:39 001 1 gusting 1 22.2
2017-Sep-23 20:34 008 2 gusting 2 22.2
2017-Sep-23 20:29 034 2 gusting 4 22.2
2017-Sep-23 20:24 027 1 gusting 5 22.2
2017-Sep-23 20:19 026 2 gusting 4 22.2
2017-Sep-23 20:14 042 4 gusting 4 22.2
2017-Sep-23 20:09 035 4 gusting 5 22.2
2017-Sep-23 20:04 042 4 gusting 5 22.2
2017-Sep-23 19:59 033 4 gusting 5 22.2
2017-Sep-23 19:54 039 4 gusting 5 22.2
2017-Sep-23 19:49 036 4 gusting 5 22.2
2017-Sep-23 19:44 038 4 gusting 6 22.8
2017-Sep-23 19:39 033 3 gusting 6 22.8
2017-Sep-23 19:34 030 2 gusting 5 22.8
2017-Sep-23 19:29 028 2 gusting 6 22.8
2017-Sep-23 19:24 040 4 gusting 5 22.8
2017-Sep-23 19:19 045 3 gusting 5 22.8
2017-Sep-23 19:14 061 2 gusting 6 22.8
2017-Sep-23 19:09 051 2 gusting 6 22.8
2017-Sep-23 19:04 062 2 gusting 5 23.3
2017-Sep-23 18:59 059 2 gusting 5 23.3
2017-Sep-23 18:54 050 4 gusting 5 23.3
2017-Sep-23 18:49 041 4 gusting 6 23.3
2017-Sep-23 18:44 058 4 gusting 6 23.3
2017-Sep-23 18:39 055 4 gusting 5 23.3
2017-Sep-23 18:34 059 4 gusting 6 23.9
2017-Sep-23 18:29 043 4 gusting 6 23.9
2017-Sep-23 18:24 056 4 gusting 6 23.9
2017-Sep-23 18:19 031 4 gusting 5 23.9
2017-Sep-23 18:14 039 4 gusting 6 23.9
2017-Sep-23 18:09 037 4 gusting 6 24.4
2017-Sep-23 18:04 050 4 gusting 6 24.4
2017-Sep-23 17:59 035 4 gusting 6 24.4
2017-Sep-23 17:54 044 5 gusting 6 24.4
2017-Sep-23 17:49 053 5 gusting 6 24.4
2017-Sep-23 17:44 047 6 gusting 7 25.0
2017-Sep-23 17:39 049 6 gusting 10 25.0
2017-Sep-23 17:34 033 6 gusting 8 25.0
2017-Sep-23 17:29 048 6 gusting 10 25.0
2017-Sep-23 17:24 045 5 gusting 11 25.0
2017-Sep-23 17:19 044 5 gusting 11 25.0
2017-Sep-23 17:14 049 6 gusting 7 25.6
2017-Sep-23 17:09 024 6 gusting 10 25.6
2017-Sep-23 17:04 041 6 gusting 11 25.6
2017-Sep-23 16:59 031 6 gusting 11 25.6
2017-Sep-23 16:54 027 6 gusting 10 25.6
2017-Sep-23 16:49 045 6 gusting 13 25.6
2017-Sep-23 16:44 029 6 gusting 12 25.6
2017-Sep-23 16:39 038 6 gusting 10 25.6
2017-Sep-23 16:34 048 6 gusting 12 25.6
2017-Sep-23 16:29 030 6 gusting 11 25.6
2017-Sep-23 16:24 039 6 gusting 10 26.1
2017-Sep-23 16:19 035 6 gusting 12 26.1
2017-Sep-23 16:14 043 6 gusting 11 26.1
2017-Sep-23 16:09 035 6 gusting 11 26.1
2017-Sep-23 16:04 027 7 gusting 10 26.1
2017-Sep-23 15:59 049 7 gusting 12 26.1
2017-Sep-23 15:54 037 6 gusting 13 26.1
2017-Sep-23 15:49 071 6 gusting 13 26.7
2017-Sep-23 15:44 084 6 gusting 11 26.7
2017-Sep-23 15:39 031 6 gusting 10 26.7
2017-Sep-23 15:34 055 6 gusting 11 26.7
2017-Sep-23 15:29 046 6 gusting 11 26.7
2017-Sep-23 15:24 050 6 gusting 12 26.7
2017-Sep-23 15:19 053 6 gusting 10 26.7
2017-Sep-23 15:14 066 6 gusting 12 26.7
2017-Sep-23 15:09 049 6 gusting 13 26.7
2017-Sep-23 15:04 044 6 gusting 13 26.7
2017-Sep-23 14:59 056 6 gusting 13 26.7
2017-Sep-23 14:54 044 6 gusting 12 26.7
2017-Sep-23 14:49 066 6 gusting 10 26.7
2017-Sep-23 14:44 058 5 gusting 12 26.7
2017-Sep-23 14:39 037 5 gusting 12 26.7
2017-Sep-23 14:34 046 6 gusting 11 26.7
2017-Sep-23 14:29 030 6 gusting 8 26.7
2017-Sep-23 14:24 046 6 gusting 12 26.7
2017-Sep-23 14:19 073 6 gusting 12 26.7
2017-Sep-23 14:14 033 6 gusting 13 26.7
2017-Sep-23 14:09 057 6 gusting 10 26.7
2017-Sep-23 14:04 036 6 gusting 13 26.7
2017-Sep-23 13:59 048 6 gusting 13 26.7
2017-Sep-23 13:54 032 6 gusting 12 26.7
2017-Sep-23 13:49 046 6 gusting 10 26.7
2017-Sep-23 13:44 038 6 gusting 12 26.7
2017-Sep-23 13:39 029 6 gusting 13 26.7
2017-Sep-23 13:34 055 6 gusting 10 26.7
2017-Sep-23 13:29 033 6 gusting 12 26.7
2017-Sep-23 13:24 043 6 gusting 13 26.7
2017-Sep-23 13:19 069 6 gusting 10 26.7
2017-Sep-23 13:14 053 6 gusting 13 26.7
2017-Sep-23 13:09 079 6 gusting 8 26.1
2017-Sep-23 13:04 041 6 gusting 15 26.1
2017-Sep-23 12:59 058 6 gusting 13 26.7
2017-Sep-23 12:54 033 6 gusting 11 26.7
2017-Sep-23 12:49 053 6 gusting 13 26.7
2017-Sep-23 12:44 040 7 gusting 10 26.7
2017-Sep-23 12:39 016 7 gusting 13 26.1
2017-Sep-23 12:34 026 6 gusting 13 26.1
2017-Sep-23 12:29 046 6 gusting 12 26.1
2017-Sep-23 12:24 021 6 gusting 12 26.7
2017-Sep-23 12:19 035 6 gusting 11 26.1
2017-Sep-23 12:14 061 5 gusting 11 26.1
2017-Sep-23 12:09 030 5 gusting 7 26.1
2017-Sep-23 12:04 071 5 gusting 10 26.1
2017-Sep-23 11:59 074 4 gusting 6 26.1
2017-Sep-23 11:54 059 4 gusting 8 25.6
2017-Sep-23 11:49 055 4 gusting 6 25.6
2017-Sep-23 11:44 055 4 gusting 7 25.6
2017-Sep-23 11:39 069 4 gusting 6 25.6
2017-Sep-23 11:34 049 4 gusting 6 25.0
2017-Sep-23 11:29 066 4 gusting 7 25.0
2017-Sep-23 11:24 032 4 gusting 8 25.0
2017-Sep-23 11:19 038 4 gusting 7 25.0
2017-Sep-23 11:14 021 4 gusting 6 25.0
2017-Sep-23 11:09 048 4 gusting 6 24.4
2017-Sep-23 11:04 075 4 gusting 6 24.4